World > North America > United States > South Carolina > Rock Hill   City of Rock Hill, South Carolina

Rock Hill, SC Hourly Weather Updates

Feedback E-mail the Weather

Quick Clicks

Rock Hill, SC Weather Maps

°F °C°F °C
Rock Hill Weather Map
UTC Time: 4/24/2024, 18:35
Your Time:

Rock Hill, SC Regional Weather

Expires:202404241900;;303868
ASUS42 KCAE 241810
RWRCAE
REGIONAL WEATHER ROUNDUP
NATIONAL WEATHER SERVICE COLUMBIA SC
200 PM EDT WED APR 24 2024

NOTE: "FAIR" INDICATES FEW OR NO CLOUDS BELOW 12,000 FEET WITH NO
SIGNIFICANT WEATHER AND/OR OBSTRUCTIONS TO VISIBILITY.

NOT ALL STATIONS ARE QUALITY CONTROLLED BY THE NATIONAL 
WEATHER SERVICE. USE DATA WITH CAUTION...ESPECIALLY 
DEWPOINT OBSERVATIONS.


SCZ001>059-115-116-135>137-GAZ040-063>065-077-241900-
...UPSTATE SOUTH CAROLINA...
  
CITY           SKY/WX    TMP DP  RH WIND       PRES   REMARKS
ANDERSON       CLOUDY    73  50  44 SW13      30.06S                  
6HR MIN TEMP:  54; 6HR MAX TEMP:  75;                                

LIBERTY        CLOUDY    73  51  45 W10       30.05S                  
6HR MIN TEMP:  51; 6HR MAX TEMP:  73;                                

SPARTANBURG    MOSUNNY   73  45  35 SW8       30.04F                  
GREENVILLE     CLOUDY    73  48  41 NW8G20    30.05F                  
6HR MIN TEMP:  54; 6HR MAX TEMP:  74;                                

GREENWOOD      SUNNY     76  53  44 SW16      30.07F                  
6HR MIN TEMP:  51; 6HR MAX TEMP:  76;                                

GREER          CLOUDY    73  47  39 W6        30.05S                  
6HR MIN TEMP:  55; 6HR MAX TEMP:  74;                                

ROCK HILL      PTSUNNY   71  48  43 NW8       30.03F                  
6HR MIN TEMP:  53; 6HR MAX TEMP:  75;                                

CHESTER        PTSUNNY   72  46  40 CALM      30.05F                  
LAURENS        MOSUNNY   72  48  43 W5        30.05S                  


...CENTRAL SOUTH CAROLINA...
  
CITY           SKY/WX    TMP DP  RH WIND       PRES   REMARKS
COLUMBIA APT   MOSUNNY   78  52  40 SW14G21   30.04F                  
6HR MIN TEMP:  56; 6HR MAX TEMP:  79;                                

COLUMBIA OWENS SUNNY     77  50  38 W10G22    30.05F                  
6HR MIN TEMP:  55; 6HR MAX TEMP:  78;                                

MCENTIRE ANGB  SUNNY     80  48  32 SW16      30.02F                  
6HR MIN TEMP:  56; 6HR MAX TEMP:  80;                                

ORANGEBURG     SUNNY     80  53  39 W15G21    30.07F                  
6HR MIN TEMP:  54; 6HR MAX TEMP:  81;                                

SUMTER SHAW    MOSUNNY   79  48  33 W12G20    30.02F                  
6HR MIN TEMP:  58; 6HR MAX TEMP:  80;                                

NEWBERRY       SUNNY     75  46  35 SW10G18   30.08S                  
AIKEN          SUNNY     78  51  39 W16G24    30.09S                  
6HR MIN TEMP:  54; 6HR MAX TEMP:  79;                                

BARNWELL       MOSUNNY   79  52  38 W10G17    30.09S                  
MANNING        SUNNY     75  46  35 W14       30.06F                  
CAMDEN         SUNNY     77  48  36 SW12      30.04F                  
LANCASTER      PTSUNNY   75  46  35 S6        30.04F                  
WINNSBORO      SUNNY     77  48  36 SW8       30.04F                  


...EASTERN AND COASTAL SOUTH CAROLINA...
  
CITY           SKY/WX    TMP DP  RH WIND       PRES   REMARKS
MYRTLE BEACH   SUNNY     73  61  65 S18       30.06F                  
6HR MIN TEMP:  60; 6HR MAX TEMP:  77;                                

N MYRTLE BCH   SUNNY     72  59  63 SW21G31   30.05F                  
6HR MIN TEMP:  61; 6HR MAX TEMP:  73;                                

CONWAY         SUNNY     75  48  38 W9G20     30.05F                  
MARION         SUNNY     75  50  41 SW9       30.05S                  
HARTSVILLE     SUNNY     77  46  33 VRB6G12   30.04S                  
FLORENCE       SUNNY     79  50  36 W10G20    30.04F                  
6HR MIN TEMP:  55; 6HR MAX TEMP:  79;                                

DARLINGTON     SUNNY     78  48  34 W9        30.04F                  
6HR MIN TEMP:  55; 6HR MAX TEMP:  78;                                

CHARLESTON APT MOSUNNY   78  51  38 SW8G20    30.08F                  
6HR MIN TEMP:  59; 6HR MAX TEMP:  79;                                

MOUNT PLEASANT SUNNY     77  50  38 S9G16     30.08F                  
WALTERBORO     MOSUNNY   77  50  38 NW6G16    30.09F                  
BEAUFORT       MOSUNNY   80  54  40 W8G20     30.10F                  
6HR MIN TEMP:  60; 6HR MAX TEMP:  80;                                

HILTON HEAD    SUNNY     77  50  38 VRB9G20   30.12F                  


...EASTERN GEORGIA...
  
CITY           SKY/WX    TMP DP  RH WIND       PRES   REMARKS
AUGUSTA BUSH F MOSUNNY   76  50  40 W10G23    30.07F                  
6HR MIN TEMP:  54; 6HR MAX TEMP:  78;                                

AUGUSTA DANIEL MOSUNNY   77  50  38 SW9G17    30.08F                  
6HR MIN TEMP:  54; 6HR MAX TEMP:  78;                                

THOMSON        MOSUNNY   77  53  42 W8        30.08F                  
6HR MIN TEMP:  51; 6HR MAX TEMP:  78;                                

WASHINGTON     MOSUNNY   75  52  44 W12       30.09F                  
6HR MIN TEMP:  52; 6HR MAX TEMP:  75;                                

CLAXTON        SUNNY     78  46  32 W8        30.12F                  
6HR MIN TEMP:  51; 6HR MAX TEMP:  78;                                

STATESBORO     SUNNY     77  45  31 W9        30.11F                  
SAVANNAH       MOSUNNY   78  48  34 W12       30.12F                  
6HR MIN TEMP:  56; 6HR MAX TEMP:  78;                                



...SOUTHERN NORTH CAROLINA...
  
CITY           SKY/WX    TMP DP  RH WIND       PRES   REMARKS
CHARLOTTE      PTSUNNY   73  47  39 NW7       30.04F                  
6HR MIN TEMP:  54; 6HR MAX TEMP:  74;                                

MONROE         CLOUDY    73  48  41 NW7       30.03F                  
6HR MIN TEMP:  54; 6HR MAX TEMP:  75;                                

WADESBORO      PTSUNNY   74  44  33 SW5       30.03S                  
6HR MIN TEMP:  54; 6HR MAX TEMP:  74;                                

ROCKINGHAM     MOSUNNY   75  45  33 W5        30.03F                  
6HR MIN TEMP:  53; 6HR MAX TEMP:  76;                                

RUTHERFORDTON  CLOUDY    70  46  43 N3        30.06S                  
ASHEVILLE      MOSUNNY   65  49  56 N9G23     30.08F                  
6HR MIN TEMP:  47; 6HR MAX TEMP:  65; 6HR PCP: TRACE;                


$$
  

SKY/WX - Weather  TMP - Temperature  DP - Dew Point  RH - Humidity
WIND - Wind Direction/Speed PRES - Barometric Pressure VSB - Visibility
WCI - Wind Chill Index E13G22 Wind - East Wind 13 mph/Gusts of 22 mph

Trending Headlines

Trending Entertainment Headlines

Rock Hill Radar Loop

Use the map search tool if you want to place a location marker on the radar map...

Rock Hill Quick Facts

National Two Day Weather Forecast


E-mail the Rock Hill Weather Forecast

Voice your opinion or tell us about page issues...